Location: Toronto
(43.6672°N, 79.4170°W)
Time: 18:21:44
(UTC-04:00)

ISS - All Passes

Search period start: 03 July 2015 00:00
Search period end: 13 July 2015 00:00
Orbit: 398 x 403 km, 51.6° (Epoch: 03 July)

Date Brightness Start Highest point End Pass type
(mag) Time Alt. Az. Time Alt. Az. Time Alt. Az.
03 Jul - 08:42:30 10° S 08:44:56 20° SE 08:47:25 10° E daylight
03 Jul - 10:17:55 10° WSW 10:21:06 56° NNW 10:24:19 10° NE daylight
03 Jul - 11:55:25 10° WNW 11:57:59 21° N 12:00:34 10° NE daylight
03 Jul - 13:32:28 10° NW 13:35:08 23° NNE 13:37:49 10° ENE daylight
03 Jul - 15:08:41 10° NW 15:11:55 76° NNE 15:15:10 10° ESE daylight
03 Jul - 16:46:05 10° W 16:47:59 14° SW 16:49:47 10° SSW daylight
04 Jul - 07:50:55 10° SE 07:51:38 11° SE 07:52:29 10° ESE daylight
04 Jul - 09:24:21 10° SW 09:27:35 82° SE 09:30:51 10° ENE daylight
04 Jul - 11:01:30 10° WNW 11:04:16 25° NNW 11:07:03 10° NE daylight
04 Jul - 12:38:54 10° NW 12:41:25 20° N 12:43:55 10° NE daylight
04 Jul - 14:15:14 10° NW 14:18:22 45° NNE 14:21:30 10° E daylight
04 Jul - 15:51:51 10° WNW 15:54:39 26° SW 15:57:25 10° SSE daylight
05 Jul - 08:31:02 10° SW 08:34:08 43° SE 08:37:14 10° ENE daylight
05 Jul - 10:07:36 10° W 10:10:36 33° NNW 10:13:36 10° NE daylight
05 Jul - 11:45:11 10° NW 11:47:39 19° N 11:50:06 10° NE daylight
05 Jul - 13:21:48 10° NW 13:24:44 31° NNE 13:27:40 10° E daylight
05 Jul - 14:58:05 10° WNW 15:01:15 50° SW 15:04:24 10° SE daylight
06 Jul - 07:38:08 10° S 07:40:44 23° SE 07:43:24 10° E daylight
06 Jul - 09:13:47 10° WSW 09:16:58 50° NNW 09:20:09 10° NE daylight
06 Jul - 10:51:20 10° WNW 10:53:53 21° N 10:56:26 10° NE daylight
06 Jul - 12:28:19 10° NW 12:31:01 24° NNE 12:33:45 10° ENE daylight
06 Jul - 14:04:31 10° WNW 14:07:46 86° NNE 14:11:00 10° ESE daylight
06 Jul - 15:42:14 10° WSW 15:43:46 13° SW 15:45:11 10° SSW daylight
07 Jul - 06:46:02 10° SSE 06:47:24 12° SE 06:48:53 10° ESE daylight
07 Jul - 08:20:09 10° WSW 08:23:23 87° NW 08:26:39 10° ENE daylight
07 Jul - 09:57:24 10° WNW 10:00:08 24° NNW 10:02:51 10° NE daylight
07 Jul - 11:34:44 10° NW 11:37:16 20° N 11:39:49 10° ENE daylight
07 Jul - 13:11:01 10° NW 13:14:11 50° NNE 13:17:21 10° ESE daylight
07 Jul - 14:47:45 10° W 14:50:25 23° SW 14:53:02 10° S daylight
08 Jul - 07:26:44 10° SW 07:29:54 49° SE 07:33:03 10° ENE daylight
08 Jul - 09:03:26 10° W 09:06:24 31° NNW 09:09:21 10° NE daylight
08 Jul - 10:41:01 10° NW 10:43:28 19° N 10:45:56 10° NE daylight
08 Jul - 12:17:32 10° NW 12:20:32 33° NNE 12:23:31 10° E daylight
08 Jul - 13:53:53 10° WNW 13:57:00 44° SW 14:00:05 10° SE daylight
09 Jul - 06:33:41 10° SSW 06:36:26 26° SE 06:39:14 10° ENE daylight
09 Jul - 08:09:34 10° W 08:12:43 46° NNW 08:15:52 10° NE daylight
09 Jul - 09:47:09 10° WNW 09:49:40 20° N 09:52:10 10° NE daylight
09 Jul - 11:24:02 10° NW 11:26:48 25° NNE 11:29:34 10° ENE daylight
09 Jul - 13:00:14 10° WNW 13:03:29 84° SW 13:06:44 10° SE daylight
09 Jul - 14:38:29 10° WSW 14:39:27 11° SW 14:40:16 10° SSW daylight
10 Jul - 05:41:17 10° SSE 05:43:03 14° SE 05:44:54 10° E daylight
10 Jul - 07:15:50 10° WSW 07:19:05 78° NNW 07:22:21 10° NE daylight
10 Jul - 08:53:10 10° WNW 08:55:52 23° NNW 08:58:33 10° NE daylight
10 Jul - 10:30:26 10° NW 10:33:00 21° N 10:35:35 10° ENE daylight
10 Jul - 12:06:41 10° NW 12:09:54 55° NNE 12:13:05 10° ESE daylight
10 Jul - 13:43:33 10° W 13:46:04 20° SW 13:48:32 10° S daylight
11 Jul - 06:22:20 10° SW 06:25:32 57° SE 06:28:44 10° ENE daylight
11 Jul - 07:59:10 10° W 08:02:05 29° NNW 08:05:00 10° NE daylight
11 Jul - 09:36:43 10° NW 09:39:10 19° N 09:41:38 10° NE daylight
11 Jul - 11:13:10 10° NW 11:16:12 35° NNE 11:19:15 10° E daylight
11 Jul - 12:49:35 10° WNW 12:52:37 38° SW 12:55:38 10° SSE daylight
12 Jul - 05:29:10 10° SSW 05:32:02 29° SE 05:34:56 10° ENE daylight
12 Jul - 07:05:14 10° W 07:08:21 42° NNW 07:11:28 10° NE daylight
12 Jul - 08:42:50 10° NW 08:45:20 20° N 08:47:49 10° NE daylight
12 Jul - 10:19:38 10° NW 10:22:27 26° NNE 10:25:16 10° ENE daylight
12 Jul - 11:55:51 10° WNW 11:59:05 74° SW 12:02:19 10° SE daylight
